Overview Statistics Trail Chart Weather Telemetry Raw packets
 

This is the latest recevied weather packets stored in our database for station/object KQ7A. If no packets are shown the sender has not sent any weather packets the latest 10 day(s).

<< 31 32 33 34 35 36 37 >>
Time Temp. Humidity Pressure Rain* Wind** Luminosity Snow
1788467595 22.22° C 34% 1014 hPa 0 mm - 779 W/m² -
1788467294 21.67° C 35% 1014.5 hPa 0 mm - 794 W/m² -
1788466991 21.67° C 34% 1014.1 hPa 0 mm - 812 W/m² -
1788466690 22.22° C 33% 1014.4 hPa 0 mm - 829 W/m² -
1788466385 21.11° C 35% 1014.6 hPa 0 mm - 864 W/m² -
1788466084 21.67° C 33% 1014.7 hPa 0 mm - 720 W/m² -
1788465779 21.11° C 33% 1014.8 hPa 0 mm - 915 W/m² -
1788465474 22.22° C 32% 1014.5 hPa 0 mm - 862 W/m² -
1788465171 22.22° C 31% 1014.4 hPa 0 mm - 931 W/m² -
1788464865 22.78° C 31% 1014 hPa 0 mm - 852 W/m² -
1788464561 22.22° C 32% 1014.3 hPa 0 mm - 586 W/m² -
1788464256 22.22° C 31% 1014.3 hPa 0 mm - 855 W/m² -
1788463952 21.67° C 32% 1014.4 hPa 0 mm - 801 W/m² -
1788463648 21.67° C 33% 1014.5 hPa 0 mm - 833 W/m² -
1788463343 22.78° C 31% 1014.5 hPa 0 mm - 849 W/m² -
1788463039 21.67° C 31% 1014.5 hPa 0 mm - 846 W/m² -
1788462729 22.22° C 32% 1014.6 hPa 0 mm - 583 W/m² -
1788462423 21.67° C 31% 1014.7 hPa 0 mm - 897 W/m² -
1788462123 21.67° C 31% 1014.7 hPa 0 mm - 254 W/m² -
1788461818 21.67° C 32% 1014.8 hPa 0 mm - 961 W/m² -
1788461513 21.67° C 32% 1014.7 hPa 0 mm - 911 W/m² -
1788461209 21.11° C 32% 1014.8 hPa 0 mm - 901 W/m² -
1788460920 21.67° C 30% 1015 hPa 0 mm - 962 W/m² -
1788460604 21.67° C 31% 1015.1 hPa 0 mm - 956 W/m² -
1788460299 21.11° C 32% 1015.3 hPa 0 mm - 934 W/m² -

* Rain latest hour (hover to see other rain measurements)
** Current wind speed in m/s (hover to see current wind gust speed)